Regional Weather Roundup
Issued by NWS Charleston, WV

Home | Current Version | Previous Version | Graphics & Text | Print | Product List | Glossary On
Versions: 1 2 3 4 5 6 7 8 9 10 11 12 13 14 15 16 17 18 19 20 21 22 23 24 25 26 27 28 29 30 31 32 33 34 35 36 37 38 39 40 41 42 43 44 45 46 47 48 49 50
000
ASUS41 KRLX 260410
RWRRLX
West Virginia Regional Weather Roundup
National Weather Service Charleston WV
1200 AM EDT THU MAY 26 2016

Note: "fair" indicates few or no clouds below 12,000 feet with no
significant weather and/or obstructions to visibility.

WVZ003-260500-
Northern Panhandle of West Virginia

CITY           SKY/WX    TMP DP  RH WIND       PRES   REMARKS
WHEELING         N/A     69  54  58 SE5       30.12F
$$

WVZ009-260500-
Northwest West Virginia

CITY           SKY/WX    TMP DP  RH WIND       PRES   REMARKS
PARKERSBURG      N/A     64  62  93 CALM      30.13F FOG
$$

WVZ006-260500-
Western West Virginia

CITY           SKY/WX    TMP DP  RH WIND       PRES   REMARKS
HUNTINGTON     CLOUDY    70  62  76 S5        30.11F
$$

WVZ015-260500-
West Central West Virginia

CITY           SKY/WX    TMP DP  RH WIND       PRES   REMARKS
CHARLESTON       N/A     65  63  93 W3        30.13S
$$

WVZ022-031-260500-
North Central West Virginia

CITY           SKY/WX    TMP DP  RH WIND       PRES   REMARKS
CLARKSBURG       N/A     64  60  87 CALM      30.14S
MORGANTOWN       N/A     68  54  60 CALM      30.15F
$$

WVZ025-035-042-045-260500-
Southern West Virginia

CITY           SKY/WX    TMP DP  RH WIND       PRES   REMARKS
BECKLEY          N/A     66  54  65 S5        30.21F
LOGAN            N/A     72  61  68 CALM      30.16S
BLUEFIELD        N/A     67  52  58 CALM      30.25F
LEWISBURG        N/A     61  56  85 CALM      30.22S
$$

WVZ047-260500-
Northern Mountains of West Virginia

CITY           SKY/WX    TMP DP  RH WIND       PRES   REMARKS
ELKINS           N/A     57  54  89 CALM      30.20S
$$

WVZ052-260500-
Eastern Panhandle of West Virginia

CITY           SKY/WX    TMP DP  RH WIND       PRES   REMARKS
MARTINSBURG      N/A     63  56  78 SW3       30.11S
PETERSBURG       N/A     60  57  92 CALM      30.16S
$$



USA.gov is the U.S. government's official web portal to all federal, state and local government web resources and services.